Total_Precipitation_Accumulation
0.00 0.00 0.00 0.00 0.01 0.01 0.01 0.01 0.02 0.02 0.03 0.06 0.12 0.14 0.25 0.35 0.38 0.42 0.46 0.48 0.47 0.63 0.81 1.04 1.39 1.75 2.25 2.28 2.21 2.37 2.61 2.73 2.85 3.14 3.26 3.43 3.74 3.95 4.11 4.20 4.10 4.01 3.88 3.94
0.00 0.00 0.00 0.00 0.01 0.01 0.01 0.02 0.03 0.06 0.06 0.10 0.17 0.22 0.29 0.39 0.44 0.44 0.51 0.58 0.61 0.76 1.03 1.23 1.45 1.92 2.39 2.59 2.66 2.70 2.93 3.21 3.48 3.70 4.04 4.36 4.67 4.89 5.04 5.07 4.62 4.38 4.26 4.21
0.00 0.00 0.00 0.00 0.01 0.01 0.02 0.02 0.05 0.08 0.06 0.09 0.17 0.35 0.46 0.47 0.48 0.58 0.76 0.88 0.97 1.04 1.27 1.38 1.59 2.00 2.38 2.57 2.72 2.86 3.11 3.55 4.10 4.43 4.81 5.24 5.47 5.54 5.34 5.08 4.95 4.77 4.61 4.49
0.00 0.00 0.00 0.00 0.01 0.01 0.01 0.01 0.03 0.04 0.05 0.11 0.17 0.40 0.69 0.72 0.73 0.90 1.04 0.95 0.99 1.16 1.37 1.56 1.78 2.04 2.36 2.54 2.66 2.98 3.50 4.13 4.67 5.10 5.61 6.13 6.29 6.12 5.81 5.40 5.01 4.74 4.47 4.14
0.00 0.00 0.01 0.01 0.01 0.01 0.01 0.01 0.02 0.03 0.02 0.08 0.13 0.32 0.83 0.99 1.00 1.19 1.39 1.14 1.05 1.04 1.15 1.39 1.61 1.81 2.12 2.27 2.50 2.90 3.51 4.22 4.92 5.69 6.33 6.74 6.69 6.37 5.98 5.34 4.76 4.25 3.87 3.56
0.01 0.01 0.01 0.01 0.01 0.01 0.01 0.01 0.02 0.02 0.03 0.09 0.12 0.30 0.86 1.24 1.39 1.50 1.38 1.16 1.03 0.98 0.95 0.97 1.10 1.32 1.56 1.89 2.24 2.67 3.29 4.02 4.69 5.33 5.84 5.99 5.93 5.77 5.30 4.62 4.04 3.67 3.34 3.00
0.03 0.03 0.02 0.01 0.01 0.01 0.01 0.02 0.10 0.16 0.20 0.19 0.16 0.37 0.89 1.25 1.43 1.34 1.18 1.09 0.96 0.85 0.79 0.77 0.79 0.99 1.26 1.52 1.88 2.32 2.77 3.36 3.82 4.21 4.61 4.74 4.75 4.60 4.34 3.91 3.51 3.13 2.65 2.30
0.11 0.08 0.04 0.02 0.02 0.02 0.02 0.03 0.15 0.29 0.29 0.32 0.37 0.67 1.14 1.23 1.27 1.19 1.09 1.02 0.86 0.76 0.73 0.76 0.82 0.94 1.16 1.38 1.62 1.82 2.11 2.47 2.63 2.70 2.91 3.11 3.13 3.15 3.08 2.84 2.61 2.36 2.02 1.69
0.20 0.13 0.06 0.03 0.02 0.02 0.02 0.03 0.07 0.13 0.16 0.36 0.66 1.02 1.49 1.40 1.29 1.24 1.23 1.05 0.86 0.75 0.73 0.75 0.78 0.83 0.92 1.06 1.14 1.23 1.36 1.53 1.61 1.69 1.73 1.81 1.89 1.92 1.88 1.78 1.61 1.44 1.28 1.08
0.19 0.16 0.07 0.04 0.03 0.04 0.05 0.06 0.09 0.16 0.34 0.56 0.81 1.25 1.82 1.91 1.59 1.29 1.10 0.91 0.76 0.72 0.72 0.72 0.71 0.72 0.75 0.78 0.83 0.88 0.92 1.01 1.11 1.17 1.17 1.19 1.22 1.19 1.11 1.04 1.00 0.91 0.81 0.73
0.19 0.19 0.10 0.06 0.08 0.10 0.09 0.11 0.14 0.20 0.25 0.53 0.91 1.55 1.83 2.07 1.99 1.49 1.12 1.00 0.91 0.80 0.73 0.73 0.71 0.62 0.59 0.60 0.62 0.68 0.72 0.76 0.79 0.83 0.86 0.87 0.85 0.81 0.78 0.74 0.70 0.65 0.56 0.47
0.21 0.27 0.25 0.17 0.13 0.12 0.11 0.14 0.20 0.40 0.43 0.44 0.87 1.74 1.89 2.16 2.21 1.83 1.49 1.39 1.31 1.02 0.86 0.82 0.75 0.63 0.57 0.58 0.57 0.59 0.60 0.63 0.67 0.63 0.63 0.67 0.62 0.56 0.54 0.52 0.46 0.42 0.40 0.35
0.19 0.35 0.60 0.57 0.42 0.23 0.17 0.17 0.19 0.25 0.40 0.55 0.98 1.88 2.14 2.11 2.13 1.94 1.66 1.55 1.61 1.48 1.25 1.05 0.88 0.75 0.68 0.62 0.57 0.53 0.50 0.50 0.54 0.53 0.50 0.52 0.51 0.48 0.44 0.39 0.34 0.30 0.31 0.32
0.15 0.37 0.82 1.09 0.79 0.47 0.32 0.22 0.20 0.25 0.51 0.66 0.98 1.56 1.94 2.03 2.06 2.02 2.00 1.97 1.92 1.71 1.46 1.22 0.98 0.85 0.78 0.71 0.64 0.57 0.52 0.45 0.43 0.45 0.45 0.43 0.41 0.39 0.38 0.34 0.32 0.30 0.26 0.24
0.25 0.57 0.62 0.54 0.46 0.42 0.35 0.31 0.29 0.29 0.35 0.64 1.01 1.35 1.75 1.93 1.98 2.14 2.26 2.17 1.86 1.55 1.36 1.26 1.13 1.01 0.90 0.80 0.72 0.61 0.52 0.45 0.41 0.43 0.48 0.46 0.39 0.34 0.33 0.31 0.30 0.28 0.26 0.20
0.30 0.52 0.53 0.48 0.36 0.41 0.41 0.42 0.44 0.42 0.47 0.73 1.07 1.56 1.87 2.02 2.10 2.14 2.13 2.08 1.94 1.68 1.48 1.34 1.22 1.09 0.98 0.85 0.78 0.73 0.67 0.62 0.53 0.50 0.53 0.51 0.44 0.38 0.34 0.29 0.25 0.23 0.20 0.16
0.28 0.45 0.72 0.68 0.41 0.57 0.87 0.72 0.60 0.63 0.67 0.83 1.12 1.40 1.55 1.67 1.85 2.04 2.09 2.01 1.96 1.78 1.59 1.45 1.36 1.27 1.16 1.05 0.95 0.87 0.75 0.64 0.56 0.49 0.46 0.44 0.39 0.35 0.31 0.25 0.22 0.23 0.22 0.19
0.23 0.43 0.63 0.63 0.72 1.15 1.00 0.64 0.58 0.69 0.75 0.75 0.88 0.97 1.17 1.31 1.48 1.73 1.92 1.97 1.99 1.85 1.75 1.63 1.47 1.34 1.24 1.10 0.93 0.73 0.59 0.51 0.45 0.41 0.37 0.32 0.29 0.28 0.26 0.23 0.22 0.23 0.25 0.24
0.14 0.33 0.58 0.70 0.96 1.13 0.99 0.60 0.52 0.78 0.97 0.73 0.74 0.76 0.78 0.86 1.05 1.46 1.61 1.67 1.76 1.73 1.64 1.57 1.44 1.30 1.13 0.93 0.73 0.58 0.49 0.44 0.39 0.37 0.35 0.29 0.24 0.24 0.25 0.25 0.25 0.26 0.26 0.26
0.15 0.28 0.57 0.74 1.07 1.30 1.19 0.52 0.31 0.58 1.19 0.89 0.77 0.79 0.79 0.92 1.11 1.15 1.15 1.17 1.22 1.31 1.32 1.28 1.17 1.01 0.87 0.70 0.55 0.50 0.45 0.42 0.37 0.32 0.29 0.24 0.22 0.23 0.23 0.25 0.27 0.26 0.26 0.24
0.37 0.45 0.67 0.83 1.07 1.17 0.64 0.34 0.43 1.02 1.29 0.95 0.75 0.80 0.95 1.11 1.04 0.78 0.69 0.82 0.93 1.00 1.04 1.01 0.91 0.81 0.68 0.54 0.49 0.51 0.48 0.42 0.32 0.25 0.26 0.25 0.23 0.21 0.21 0.24 0.28 0.27 0.25 0.26
0.51 0.66 0.81 0.88 1.11 1.14 0.48 0.39 0.69 0.84 0.69 0.60 0.58 0.61 0.62 0.61 0.57 0.53 0.51 0.61 0.71 0.81 0.83 0.80 0.77 0.70 0.61 0.54 0.53 0.53 0.49 0.36 0.28 0.29 0.33 0.32 0.26 0.17 0.16 0.24 0.28 0.26 0.25 0.28
0.45 0.60 0.69 0.83 0.99 0.76 0.38 0.36 0.38 0.38 0.46 0.45 0.49 0.51 0.41 0.39 0.44 0.44 0.45 0.54 0.64 0.66 0.63 0.60 0.59 0.57 0.57 0.54 0.56 0.53 0.42 0.31 0.28 0.33 0.35 0.31 0.22 0.18 0.18 0.22 0.25 0.23 0.23 0.22
0.42 0.29 0.39 0.54 0.59 0.43 0.33 0.29 0.29 0.31 0.34 0.35 0.39 0.40 0.37 0.33 0.31 0.32 0.40 0.51 0.55 0.52 0.47 0.48 0.50 0.52 0.53 0.52 0.52 0.49 0.39 0.35 0.38 0.42 0.37 0.29 0.25 0.21 0.18 0.17 0.15 0.15 0.16 0.16
0.43 0.27 0.37 0.52 0.54 0.43 0.40 0.32 0.29 0.31 0.32 0.30 0.32 0.37 0.32 0.26 0.24 0.26 0.35 0.38 0.42 0.44 0.43 0.47 0.55 0.54 0.47 0.42 0.41 0.35 0.34 0.36 0.42 0.40 0.33 0.28 0.23 0.19 0.17 0.14 0.10 0.09 0.09 0.07
0.33 0.33 0.38 0.49 0.45 0.44 0.45 0.29 0.23 0.31 0.38 0.40 0.38 0.32 0.28 0.25 0.22 0.23 0.29 0.33 0.34 0.39 0.45 0.52 0.52 0.45 0.35 0.31 0.31 0.25 0.24 0.27 0.31 0.30 0.25 0.21 0.16 0.14 0.12 0.12 0.10 0.04 0.03 0.03